Content
SEND FEEDBACK

Daily
Averages
Monthly
Summary
United States of America

MALCOLM, NEBRASKA


Home > North America > United States > Nebraska
Elevation: 1195 feet     Latitude: 40 51N     Longitude: 096 45W

WEATHER
 
SELECT A DAY
Number of Records: 207,546;   Date Range: 1/1/95 - 12/16/14
 
SHARE

PRINT THIS DATA

[ ← Previous Day ]
WEATHER ALMANAC - JANUARY 31, 2013
[ Next Day → ]
[ °C ]   °F
Weather ElementAverageHighLow
Temperature9 °F16 °F (1:54 am)1 °F (8:54 pm)
Dewpoint-0.7 °F10.9 °F (1:54 am)-7.1 °F (8:54 pm)
Humidity65.1 %81 % (1:54 am)53 % (3:54 pm)
Barometer30.30 in30.51 in (9:54 pm)30.02 in (1:54 am)
Wind Speed13.5 mph28.8 mph (10:54 am)
Wind Gust39.1 mph (10:54 am)
Weather ElementAverage
Visibility9.3 mi
Wind DirectionNW (316.3 °)

Weather ElementTotal
Precipitation---
Heating Degree Days56.5 (Base 65)
Averaged from 24 records on January 31, 2013
WEATHER CONDITIONS BREAKOUT
WIND DIRECTION BREAKOUT
WEATHER BY HOUR - JANUARY 31, 2013
[ °C ]   °F
Local TimeTemperatureDewpointHumidityBarometerVisibilityWind DirectionWind SpeedGust SpeedPrecipitationEventsConditions
1:54 AM16.0 °F10.9 °F81 %30.02 in10.0 miNW (310°)3.5 mphOvercast
2:54 AM16.0 °F8.1 °F71 %30.04 in10.0 miNNW (330°)12.7 mphOvercast
3:54 AM12.9 °F5.0 °F71 %30.06 in10.0 miNNW (330°)10.4 mphClear
4:54 AM10.9 °F1.9 °F67 %30.09 in10.0 miNNW (330°)11.5 mphClear
5:54 AM10.0 °F3.0 °F73 %30.12 in10.0 miNNW (330°)6.9 mphMostly Cloudy
6:54 AM10.9 °F3.9 °F73 %30.14 in10.0 miNNW (330°)15.0 mphOvercast
7:54 AM10.9 °F3.0 °F70 %30.18 in10.0 miNNW (330°)16.1 mphOvercast
8:54 AM10.9 °F1.9 °F67 %30.23 in10.0 miNNW (330°)15.0 mphOvercast
9:54 AM10.0 °F0.0 °F64 %30.28 in4.0 miNNW (330°)27.6 mph36.8 mphSnowBlowing Snow
10:54 AM9.0 °F-2.0 °F61 %30.34 in3.0 miNNW (340°)28.8 mph39.1 mphSnowBlowing Snow
10:58 AM8.6 °F-2.2 °F62 %30.26 in7.0 miNNW (340°)27.6 mph39.1 mphPartly Cloudy
11:54 AM10.0 °F-0.9 °F61 %30.36 in8.0 miNNW (330°)24.2 mph31.1 mphScattered Clouds
12:54 PM10.9 °F0.0 °F61 %30.37 in10.0 miNNW (330°)18.4 mph25.3 mphScattered Clouds
1:54 PM10.9 °F-2.9 °F54 %30.38 in10.0 miNNW (330°)25.3 mphPartly Cloudy
2:54 PM12.0 °F-0.9 °F56 %30.38 in10.0 miNNW (340°)15.0 mphPartly Cloudy
3:54 PM12.0 °F-2.0 °F53 %30.41 in10.0 miNW (320°)16.1 mphClear
4:54 PM10.9 °F-2.9 °F54 %30.43 in10.0 miNNW (330°)15.0 mphClear
5:54 PM8.6 °F-4.0 °F57 %30.36 in10.0 miNNW (330°)10.4 mphClear
6:54 PM1.9 °F-5.1 °F72 %30.46 in10.0 miNNW (340°)4.6 mphClear
7:54 PM6.8 °F-5.8 °F56 %30.39 in10.0 miNNW (340°)8.1 mphClear
8:54 PM1.0 °F-7.1 °F69 %30.48 in10.0 miNorth (360°)5.8 mphClear
9:54 PM3.0 °F-6.0 °F66 %30.51 in10.0 miCalmClear
10:54 PM1.4 °F-5.8 °F72 %30.43 in10.0 miWNW (300°)3.5 mphClear
11:54 PM1.4 °F-5.8 °F72 %30.43 in10.0 miNW (310°)3.5 mphOvercast
Hourly data recorded from KLNK, located miles away from Malcolm, Nebraska







STORIES FROM OUR PARTNERS